Simultaneous Nadir Overpasses (SNOs) Predictions

Prediction of SNOs between AQUA and METOP-A Satellite Orbit:

Table of predicted SNOs for the next 14.0 days since TLE Epoch: 4/25/2014
Index Date (AQUA) Time (AQUA) Lat,Lon (AQUA) SZA (AQUA ) Date (METOP-A) Time (METOP-A) Lat,Lon (METOP-A) SZA (METOP-A ) Distance(km) Time Diff (sec)
1 04/27/2014 04:24:04 73.88, 108.29 60.06 04/27/2014 04:22:57 73.87, 108.34 60.07 1.77 67
2 04/27/2014 05:13:30 -73.91, -84.14 119.92 04/27/2014 05:13:38 -73.91, -84.23 119.91 3.12 8
3 04/27/2014 06:03:02 74.13, 83.00 60.31 04/27/2014 06:04:13 74.15, 83.69 60.30 21.08 71
4 04/29/2014 23:58:23 73.89, 174.67 59.19 04/29/2014 23:57:21 73.88, 174.77 59.19 3.48 62
5 04/30/2014 00:47:49 -73.92, -17.75 120.79 04/30/2014 00:48:02 -73.92, -17.81 120.79 1.87 13
6 04/30/2014 01:37:24 74.30, 149.02 59.61 04/30/2014 01:38:34 74.30, 150.49 59.56 44.25 70
7 05/02/2014 19:32:40 73.90,-118.91 58.35 05/02/2014 19:31:44 73.88,-118.83 58.33 3.43 56
8 05/02/2014 20:22:06 -73.92, 48.67 121.64 05/02/2014 20:22:25 -73.92, 48.59 121.65 2.52 19
9 05/02/2014 21:11:46 74.56,-145.18 59.03 05/02/2014 21:12:52 74.55,-142.47 58.94 80.39 66
10 05/05/2014 15:06:57 73.88, -52.46 57.51 05/05/2014 15:06:08 73.87, -52.45 57.50 2.09 49
11 05/05/2014 15:56:24 -73.96, 115.02 122.42 05/05/2014 15:56:48 -73.95, 115.10 122.43 2.40 24
12 05/08/2014 10:41:13 73.86, 14.03 56.70 05/08/2014 10:40:32 73.84, 13.92 56.70 3.72 41
13 05/08/2014 11:30:40 -73.93,-178.48 123.24 05/08/2014 11:31:12 -73.93,-178.54 123.23 1.97 32




NCC Satellite Simultaneous Nadir Overpasses (SNOs) Prediction Service
